Wind_Speed
7 7 8 7 7 7 7 6 7 7 7 8 7 8 9 9 9 10 11 10 10 10 10 10 10 11 11 11 11 12 12 12 12 11 12 12 11 11 11 11 11 11 11
8 9 9 9 9 8 7 7 8 8 8 8 8 9 9 9 9 10 10 9 10 10 10 10 10 11 12 12 12 12 12 12 12 13 13 12 12 12 12 12 12 12 12
10 10 9 9 9 9 9 9 8 9 9 9 9 9 9 10 10 10 10 10 10 11 10 10 11 12 12 13 13 13 13 13 13 13 14 14 13 14 13 13 13 14 13
11 11 10 10 10 10 10 10 10 10 11 11 11 10 10 10 10 11 11 11 11 11 11 11 12 12 12 13 14 14 14 14 14 14 14 14 14 14 14 14 14 14 14
12 12 12 11 11 11 11 12 12 12 12 12 12 11 12 12 11 11 11 11 12 12 12 12 12 12 13 13 14 14 15 15 15 15 15 15 14 14 14 15 15 15 14
13 13 13 13 12 12 13 13 13 13 13 13 13 13 13 13 13 13 13 13 13 13 14 14 14 14 15 15 15 15 16 16 17 17 16 17 16 16 16 15 16 15 15
14 14 14 14 14 14 14 14 14 14 14 15 14 14 14 14 14 14 15 14 15 15 14 15 15 15 15 16 17 17 16 16 17 17 17 17 18 18 17 17 17 17 17
14 14 14 14 15 15 15 15 15 16 16 16 16 16 16 16 16 15 15 15 16 16 16 16 16 17 16 17 18 18 18 17 18 18 18 18 19 19 18 18 19 19 18
13 13 13 14 15 16 16 16 17 17 17 17 17 17 17 17 17 17 17 17 17 18 18 18 17 17 18 18 19 19 19 19 19 19 20 20 20 20 20 20 20 20 19
14 14 15 15 16 16 17 17 17 17 18 18 18 18 18 19 19 19 19 19 19 19 19 19 19 19 19 19 19 19 19 20 20 20 20 21 21 21 21 21 20 21 20
16 16 16 16 17 17 18 18 18 18 18 19 20 20 20 20 20 20 21 20 20 21 21 21 21 21 20 20 21 21 21 21 21 22 21 21 22 22 22 22 22 22 22
17 17 18 17 18 18 19 19 18 19 19 20 21 21 22 21 21 21 22 22 22 22 22 23 23 22 22 22 22 21 22 22 23 22 22 22 23 23 23 23 23 22 22
18 18 19 19 19 19 19 20 20 20 20 21 21 22 23 23 22 23 23 23 23 23 23 23 23 23 23 23 23 23 23 23 23 24 24 24 24 24 24 24 23 23 23
19 19 19 19 19 19 19 20 20 21 21 21 21 22 23 22 23 23 23 23 24 24 24 24 24 24 24 24 24 24 24 23 24 24 24 24 24 24 25 24 24 24 24
20 19 19 19 19 20 20 20 20 20 20 21 21 21 22 23 23 23 23 23 24 23 23 24 24 24 25 25 24 24 24 24 24 24 25 25 24 23 24 24 25 25 25
21 20 20 20 20 21 21 21 21 21 21 22 22 22 23 24 24 24 24 23 23 23 23 23 24 24 25 24 24 24 23 23 23 23 23 23 24 24 24 24 25 25 25
21 21 21 21 21 21 21 22 22 23 22 22 23 23 23 24 24 24 25 24 24 24 24 24 24 24 24 24 25 25 25 24 24 24 23 24 24 24 24 24 24 24 24
21 21 21 21 21 21 22 22 23 23 23 23 23 24 24 25 25 25 26 26 25 25 25 24 24 24 24 24 24 24 24 24 25 25 24 24 24 24 24 25 25 26 26
22 22 22 22 22 22 22 22 23 23 23 24 24 24 25 25 26 26 26 26 26 26 25 25 25 24 24 25 25 25 25 25 25 26 26 25 25 24 24 25 26 26 27
22 22 23 22 22 21 21 22 23 23 23 24 24 25 25 25 26 26 27 27 26 26 26 26 26 26 26 25 26 26 26 26 26 25 26 26 26 25 25 25 26 27 27
22 22 22 21 22 21 21 21 22 22 23 23 24 25 25 25 25 26 27 27 27 27 27 28 28 28 28 27 27 27 27 27 27 26 26 26 27 27 27 27 26 26 27
22 22 22 21 22 22 22 22 22 23 23 24 24 24 25 25 26 26 27 27 28 28 28 29 29 29 29 28 28 27 28 29 29 29 28 28 28 28 28 28 27 27 26
23 23 22 22 22 23 23 23 23 24 24 24 25 25 25 26 27 27 27 27 27 27 28 29 29 29 29 29 29 29 29 29 29 29 30 29 29 29 29 29 28 26 26
22 22 22 22 21 21 22 23 23 24 24 24 23 24 24 25 25 25 26 26 26 27 27 28 28 28 29 29 30 29 30 30 29 29 29 29 29 29 29 29 28 27 27
22 21 21 22 22 21 22 22 23 23 23 22 23 23 23 24 24 25 25 25 26 26 27 27 27 28 29 29 30 30 30 30 30 31 31 30 30 30 30 30 29 29 29
22 22 22 22 22 22 22 22 22 22 22 22 23 23 23 24 24 24 24 25 26 27 26 26 27 28 29 30 30 30 30 30 30 30 31 31 31 31 31 30 30 30 30
Wind_Direction
259 264 265 264 263 261 258 252 246 244 245 245 244 245 241 239 245 245 242 242 238 241 242 238 240 241 243 241 238 237 235 236 237 239 239 239 242 249 252 251 255 257 261
266 266 262 264 265 266 254 254 255 252 253 248 243 246 246 246 250 246 245 241 238 241 244 242 243 245 245 240 240 244 240 238 240 242 244 245 247 251 252 253 254 257 261
269 267 262 262 263 264 263 263 255 257 257 254 249 248 248 252 250 253 249 244 241 241 243 243 244 245 245 244 242 245 244 244 246 247 249 249 250 252 254 255 256 258 260
269 267 262 260 260 260 261 261 258 261 256 253 253 253 252 254 254 254 253 247 243 242 242 243 246 245 243 245 245 245 246 247 247 250 251 252 252 253 253 255 256 258 261
270 266 261 261 259 258 258 256 258 261 258 254 252 252 254 255 255 255 253 252 248 244 246 248 251 251 250 248 249 250 250 251 248 249 251 253 255 254 257 257 255 257 261
271 269 263 262 260 258 257 256 257 258 255 252 251 252 255 258 258 256 258 258 257 254 253 252 253 255 253 251 250 250 250 251 250 250 252 253 255 255 256 257 257 259 261
272 271 265 259 258 257 256 256 256 256 252 250 251 251 254 258 258 256 258 260 260 259 259 256 254 255 253 252 252 252 253 251 250 251 254 253 255 256 256 256 257 259 260
274 271 264 256 256 258 257 258 259 255 254 252 253 253 251 254 255 257 259 260 261 262 262 264 261 260 260 258 256 256 256 254 251 252 254 257 257 256 257 257 259 260 260
275 271 265 259 259 258 257 258 259 257 254 253 253 254 254 255 255 258 260 260 261 261 262 267 267 265 265 266 260 258 257 255 257 257 257 260 260 261 261 260 260 260 261
277 272 266 263 262 262 261 262 260 261 256 254 254 255 255 255 258 261 261 260 259 260 262 263 266 267 267 265 263 261 259 260 261 261 262 261 260 261 261 261 261 262 262
276 273 269 265 265 265 264 263 263 261 260 257 256 256 255 257 258 261 262 262 261 259 260 264 266 266 267 266 266 263 263 263 263 263 263 263 262 260 258 260 260 261 262
273 271 269 267 268 267 265 264 264 262 261 259 256 256 257 257 258 260 262 262 263 263 264 265 266 266 266 269 270 266 264 264 263 262 263 264 262 260 259 259 259 262 262
273 272 270 269 270 268 267 264 264 265 263 261 257 255 257 257 258 260 262 263 263 265 266 266 266 267 267 268 270 268 265 265 263 262 263 263 264 262 261 260 260 261 261
273 271 271 270 269 269 267 265 267 266 265 263 261 259 256 257 258 261 262 263 264 264 264 265 265 265 266 268 269 268 266 265 264 264 264 262 263 263 261 261 262 262 262
274 273 273 272 270 269 268 266 266 265 264 263 262 261 258 257 258 258 260 262 263 263 265 265 267 268 266 267 267 266 266 266 266 265 265 265 264 263 262 262 263 263 263
274 273 272 272 271 270 268 267 266 265 264 263 262 262 260 258 258 258 260 262 263 262 263 265 267 268 268 266 265 265 266 266 267 266 266 266 265 265 265 263 263 264 265
276 275 273 273 272 270 269 269 267 267 264 263 263 262 261 259 259 261 261 262 263 262 262 264 265 267 267 264 264 264 265 265 265 265 265 265 265 266 267 267 268 268 267
277 277 275 274 272 271 270 268 266 265 264 263 263 262 262 262 261 261 261 261 262 263 263 263 265 267 265 264 265 265 265 266 265 265 265 265 265 266 266 266 267 267 267
276 277 276 275 273 272 270 268 267 266 264 263 263 263 263 263 263 262 263 262 262 262 262 262 264 265 265 265 264 265 265 266 267 265 263 263 264 266 267 267 266 267 267
276 277 275 274 273 272 270 269 268 267 265 264 263 263 264 264 264 264 263 262 262 263 262 262 264 265 265 265 265 265 265 265 266 266 263 262 262 265 267 269 269 269 269
275 275 273 272 272 271 271 271 269 267 266 265 264 264 264 265 264 264 263 263 264 264 263 264 265 265 263 264 265 266 265 265 265 266 264 263 263 265 267 269 270 271 270
274 273 270 270 270 270 269 269 270 269 268 268 266 265 265 265 264 264 263 264 264 264 265 266 266 264 263 264 264 266 266 265 265 265 266 266 265 266 268 269 270 270 269
274 273 271 269 270 270 270 269 269 269 269 268 268 267 267 265 264 264 266 266 265 265 266 266 264 263 263 263 264 266 266 266 265 265 265 265 265 265 267 268 269 271 272
273 272 272 270 270 271 271 270 270 271 271 270 268 268 268 266 266 268 268 267 266 267 267 265 263 262 262 263 264 266 267 266 265 265 264 266 266 266 266 267 267 268 269
273 271 273 272 272 272 272 271 272 271 272 272 271 270 267 266 266 267 267 267 266 268 268 266 263 262 263 265 266 267 268 268 266 265 264 265 265 265 265 265 266 266 267
271 270 270 271 272 272 273 273 273 273 272 272 272 270 268 267 267 268 267 268 269 268 268 267 265 264 265 267 267 267 268 269 267 266 265 265 265 265 266 266 266 266 267
Height
5876 5875 5875 5875 5875 5875 5874 5874 5875 5875 5876 5876 5877 5877 5878 5879 5879 5879 5880 5880 5881 5882 5882 5883 5884 5884 5885 5885 5886 5887 5888 5889 5889 5890 5891 5892 5892 5893 5893 5893 5894 5894 5894
5874 5873 5873 5874 5874 5873 5872 5873 5874 5874 5874 5875 5875 5876 5876 5877 5877 5877 5877 5878 5879 5879 5880 5881 5881 5882 5882 5883 5884 5885 5885 5886 5887 5888 5889 5889 5890 5890 5890 5890 5891 5891 5892
5871 5871 5871 5871 5871 5871 5871 5871 5872 5872 5872 5873 5873 5874 5874 5875 5875 5876 5876 5876 5876 5877 5878 5878 5879 5879 5880 5881 5881 5882 5883 5884 5884 5885 5886 5886 5887 5888 5888 5888 5888 5889 5889
5869 5869 5869 5869 5869 5869 5869 5870 5870 5870 5870 5871 5871 5872 5872 5873 5873 5874 5874 5874 5874 5875 5875 5876 5876 5877 5878 5878 5879 5879 5880 5881 5882 5882 5883 5883 5884 5884 5884 5885 5885 5885 5886
5866 5866 5866 5867 5867 5867 5867 5867 5868 5868 5868 5868 5869 5870 5870 5871 5871 5871 5871 5872 5872 5872 5872 5873 5874 5874 5875 5875 5876 5876 5877 5878 5879 5879 5880 5880 5881 5881 5881 5881 5882 5882 5882
5863 5863 5863 5864 5864 5864 5864 5864 5864 5865 5865 5866 5866 5867 5867 5868 5868 5869 5869 5869 5869 5869 5869 5870 5870 5871 5871 5872 5873 5873 5874 5875 5876 5876 5877 5877 5877 5878 5878 5878 5878 5878 5879
5860 5860 5860 5860 5861 5861 5861 5861 5861 5861 5862 5863 5863 5864 5864 5865 5865 5866 5866 5866 5866 5866 5866 5867 5867 5868 5868 5868 5869 5870 5871 5871 5872 5872 5873 5873 5873 5874 5874 5874 5875 5875 5875
5857 5856 5856 5856 5857 5857 5857 5857 5858 5858 5858 5859 5860 5860 5860 5862 5862 5862 5862 5862 5863 5863 5863 5863 5864 5864 5864 5865 5865 5866 5867 5867 5868 5868 5869 5869 5869 5870 5870 5870 5871 5871 5871
5853 5853 5853 5852 5853 5853 5853 5853 5853 5854 5854 5855 5855 5856 5857 5858 5858 5858 5858 5859 5859 5859 5860 5860 5860 5860 5860 5861 5861 5862 5862 5863 5863 5864 5864 5865 5865 5865 5866 5866 5866 5867 5867
5850 5849 5849 5849 5849 5849 5849 5849 5849 5849 5850 5850 5851 5851 5852 5853 5853 5854 5854 5854 5855 5855 5855 5856 5856 5856 5856 5856 5857 5857 5858 5858 5859 5859 5859 5860 5860 5860 5861 5861 5861 5862 5862
5846 5846 5845 5845 5845 5845 5845 5845 5844 5845 5845 5846 5846 5847 5847 5848 5848 5849 5850 5850 5850 5850 5851 5851 5851 5851 5851 5851 5852 5852 5853 5853 5853 5854 5854 5854 5855 5855 5855 5856 5856 5856 5856
5842 5841 5841 5840 5840 5840 5840 5840 5840 5840 5840 5840 5841 5841 5842 5843 5843 5844 5844 5844 5844 5845 5845 5845 5846 5846 5846 5846 5846 5847 5847 5847 5847 5848 5848 5848 5849 5849 5849 5850 5850 5850 5851
5837 5836 5836 5835 5835 5835 5834 5834 5835 5835 5835 5835 5835 5836 5836 5837 5838 5838 5839 5839 5839 5839 5839 5840 5840 5840 5840 5841 5841 5841 5841 5841 5841 5842 5842 5842 5843 5843 5843 5843 5844 5844 5844
5832 5831 5830 5830 5829 5829 5829 5829 5829 5829 5829 5829 5829 5830 5830 5831 5831 5832 5833 5833 5833 5834 5834 5834 5834 5834 5834 5834 5834 5834 5835 5835 5835 5835 5836 5836 5837 5837 5837 5837 5838 5838 5838
5826 5826 5825 5825 5824 5823 5823 5823 5823 5823 5823 5823 5823 5824 5824 5825 5825 5826 5826 5827 5828 5828 5828 5828 5828 5828 5828 5828 5828 5828 5828 5829 5829 5829 5829 5830 5830 5830 5831 5831 5831 5831 5832
5821 5820 5820 5819 5818 5818 5818 5817 5817 5817 5817 5817 5817 5817 5818 5818 5819 5819 5820 5821 5821 5822 5822 5822 5822 5822 5822 5822 5822 5822 5822 5822 5822 5822 5823 5823 5824 5824 5824 5824 5824 5825 5825
5815 5814 5814 5813 5812 5812 5811 5811 5810 5810 5810 5810 5810 5811 5811 5811 5812 5813 5813 5814 5814 5815 5815 5816 5816 5815 5815 5815 5815 5815 5815 5815 5816 5816 5816 5817 5817 5818 5818 5818 5818 5818 5819
5810 5809 5808 5807 5806 5805 5805 5804 5804 5803 5803 5804 5804 5804 5804 5805 5805 5806 5806 5807 5807 5808 5809 5809 5809 5809 5809 5809 5809 5808 5809 5809 5809 5809 5810 5810 5811 5811 5811 5812 5812 5812 5812
5804 5802 5802 5801 5800 5799 5798 5798 5797 5797 5797 5797 5797 5797 5797 5797 5798 5798 5799 5799 5800 5801 5801 5802 5802 5802 5802 5802 5802 5802 5802 5802 5802 5802 5803 5803 5804 5804 5805 5805 5805 5805 5805
5797 5796 5795 5794 5793 5792 5792 5791 5791 5790 5790 5790 5790 5790 5790 5790 5791 5791 5791 5792 5793 5793 5794 5794 5795 5795 5795 5795 5795 5795 5795 5795 5795 5795 5796 5796 5797 5798 5798 5798 5798 5798 5798
5790 5789 5788 5787 5787 5786 5785 5785 5784 5783 5783 5783 5783 5783 5783 5783 5783 5784 5784 5785 5785 5785 5786 5786 5787 5787 5787 5787 5788 5788 5788 5788 5788 5788 5788 5789 5790 5791 5791 5791 5791 5791 5790
5783 5782 5782 5781 5780 5779 5779 5778 5778 5777 5776 5776 5776 5775 5776 5776 5776 5776 5776 5776 5777 5777 5777 5778 5778 5779 5779 5780 5780 5780 5780 5781 5781 5781 5781 5782 5782 5783 5783 5784 5784 5783 5783
5776 5775 5775 5775 5774 5773 5772 5771 5771 5770 5769 5768 5768 5768 5768 5768 5768 5768 5769 5769 5769 5769 5769 5769 5770 5770 5771 5772 5772 5772 5772 5772 5773 5773 5773 5774 5774 5775 5775 5776 5776 5776 5776
5770 5769 5769 5768 5767 5766 5765 5765 5764 5763 5762 5761 5761 5761 5761 5761 5761 5761 5761 5761 5761 5761 5761 5761 5761 5762 5762 5763 5763 5764 5763 5764 5764 5764 5765 5766 5766 5766 5767 5767 5768 5768 5768
5764 5763 5762 5761 5761 5760 5759 5758 5757 5756 5755 5755 5754 5754 5753 5753 5753 5753 5753 5753 5753 5752 5752 5752 5753 5753 5753 5754 5754 5754 5755 5755 5755 5756 5756 5757 5757 5758 5758 5759 5759 5759 5759
5758 5757 5756 5755 5754 5753 5752 5751 5750 5749 5749 5748 5747 5747 5746 5746 5746 5746 5745 5745 5745 5745 5745 5744 5744 5745 5745 5745 5745 5746 5746 5746 5746 5747 5747 5747 5748 5748 5749 5750 5750 5750 5750